CARTOSAT-2D

Last updated on Thu Jul 03 2025 00:02:30 GMT+0000 (Coordinated Universal Time)

1 41948U 17008A 25183.61923607 .00003538 00000+0 17141-3 0 9990 2 41948 97.4602 243.3402 0005386 34.2503 325.9078 15.19179634464502
UTC large
Height (km)
Speed (km/s)
/
Latitude / Longitude
Inclination (degrees)
Orbital Period (minutes)
Azimuth
Elevation
Range (km)
Doppler Factor

Next 0 passes for location: London (51.5072 / 0.1276)

Sorry there are no passes over London.